Location: Staunton
(38.1490°N, 79.0720°W)
Time: 23:19:17
(UTC-04:00)

ISS - Pass Details

Date: 15 September 2018
Orbit: 403 x 408 km, 51.6° (Epoch: 25 September)

Event Time Altitude Azimuth Distance (km) Brightness Sun altitude
Exits shadow 05:10:27 15° 346° (NNW) 1,212 -1.4 -21.3°
Maximum altitude 05:12:14 22° 28° (NNE) 949 -1.4 -21.0°
Drops below altitude 10° 05:14:51 10° 81° (E) 1,455 0.1 -20.5°
Sets 05:17:14 0° 97° (E) 2,311 1.1 -20.1°
